Weather in Petropavlovsk

Russia / Perm Krai     57°39′08″N   54°17′27″E
temp.,
°C
wind,
m/s
gust,
m/s
humid.,
%
clouds,
%
prec.,
mm/h
press.,
hPa
HPBL,
m
4 march, thu
thu423:00−9wnw489582 0.3 998146
02:00−9w499591 0.0 998239
05:00−12w489791 0.1 998168
08:00−12wsw379798 0.0 996163
11:00−8sw479499 0.1 996320
14:00−5ssw6993100 0.1 994503
17:00−4ssw71191100 0.3 991834
20:00−5s81495100 0.9 987797
5 march, fri
fri523:00−3wsw61385100 2.4 984831
02:00−5wsw61294100 0.9 985698
05:00−5w8149398 1.3 989649
08:00−8w7139198 0.3 993611
11:00−9w7119097 0.4 996611
14:00−9wnw6990100 0.0 999530
17:00−8wnw698266 0.0 1001721
20:00−13w359320 0.0 100385
6 march, sat
sat623:00−13wsw499641 0.0 1005208
02:00−14wsw489778 0.0 1006142
05:00−14w499679 0.1 1007217
08:00−18w479889 0.0 1009128
11:00−16wnw479077 0.0 1010367
14:00−13w468510 0.0 1011584
17:00−13w358648 0.0 1011606
20:00−18w339593 0.0 101128
7 march, sun
sun723:00−20w3310069 0.0 101229
02:00−21w2310070 0.0 101121
05:00−23w2210071 0.0 101120
08:00−24w2210083 0.0 101120
11:00−18w239265 0.0 1011232
14:00−14wsw238175 0.0 1010613
17:00−13ssw238387 0.1 1009703
20:00−18s349799 0.0 100958
8 march, mon
mon823:00−19s389994 0.1 1008164
02:00−20sse4109999 0.0 1006235
05:00−18sse5109799 0.1 1003323
08:00−16sse61195100 0.6 1000459
11:00−14se61194100 1.3 999501
14:00−9sse51093100 0.8 998651
17:00−7wsw6107899 1.3 9991253
20:00−9ssw4894100 0.3 1000289